Time,TemperatureF,DewpointF,PressureIn,WindDirection,WindDirectionDegrees,WindSpeedMPH,WindSpeedGustMPH,Humidity,HourlyPrecipIn,Conditions,Clouds,dailyrainin,SoftwareType,DateUTC
2013-01-16 00:03:00,16.9,-6.6,30.21,NW,315,1.8,1.8,34,0.00,,---,0.00,VWS V14.01,2013-01-16 07:03:00,
2013-01-16 00:08:00,17.5,-8.6,30.21,NW,315,1.1,1.1,30,0.00,,---,0.00,VWS V14.01,2013-01-16 07:08:00,
2013-01-16 00:13:00,17.3,-8.1,30.21,NNW,338,0.4,0.4,31,0.00,,---,0.00,VWS V14.01,2013-01-16 07:13:00,
2013-01-16 00:18:00,17.1,-9.0,30.21,NNW,338,0.0,0.0,30,0.00,,---,0.00,VWS V14.01,2013-01-16 07:18:00,
2013-01-16 00:23:00,16.6,-6.3,30.21,NNW,338,0.0,0.0,35,0.00,,---,0.00,VWS V14.01,2013-01-16 07:23:00,
2013-01-16 00:28:00,16.4,-5.3,30.22,North,0,0.0,0.0,37,0.00,,---,0.00,VWS V14.01,2013-01-16 07:28:00,
2013-01-16 00:33:00,16.2,-5.5,30.21,NNW,338,0.2,0.2,37,0.00,,---,0.00,VWS V14.01,2013-01-16 07:33:00,
2013-01-16 00:38:00,16.2,-4.4,30.21,NNW,338,0.0,0.0,39,0.00,,---,0.00,VWS V14.01,2013-01-16 07:38:00,
2013-01-16 00:43:00,16.4,-4.8,30.21,NNW,338,0.7,0.7,38,0.00,,---,0.00,VWS V14.01,2013-01-16 07:43:00,
2013-01-16 00:48:00,16.6,-5.1,30.21,NNW,338,1.6,1.6,37,0.00,,---,0.00,VWS V14.01,2013-01-16 07:48:00,
2013-01-16 00:53:00,16.7,-6.8,30.21,NW,315,0.0,0.0,34,0.00,,---,0.00,VWS V14.01,2013-01-16 07:53:00,
2013-01-16 00:58:00,16.6,-6.9,30.21,NW,315,0.0,0.0,34,0.00,,---,0.00,VWS V14.01,2013-01-16 07:58:00,
2013-01-16 01:03:00,16.2,-6.6,30.21,NW,315,0.0,0.0,35,0.00,,---,0.00,VWS V14.01,2013-01-16 08:03:00,
2013-01-16 01:08:00,15.8,-5.3,30.21,NNW,338,0.4,0.4,38,0.00,,---,0.00,VWS V14.01,2013-01-16 08:08:00,
2013-01-16 01:13:00,15.8,-4.8,30.21,NW,315,0.0,0.0,39,0.00,,---,0.00,VWS V14.01,2013-01-16 08:13:00,
2013-01-16 01:18:00,16.2,-3.9,30.20,WNW,292,1.3,1.3,40,0.00,,---,0.00,VWS V14.01,2013-01-16 08:18:00,
2013-01-16 01:23:00,16.6,-5.1,30.20,WNW,292,0.2,0.2,37,0.00,,---,0.00,VWS V14.01,2013-01-16 08:23:00,
2013-01-16 01:28:00,16.2,-4.9,30.21,NW,315,0.7,0.7,38,0.00,,---,0.00,VWS V14.01,2013-01-16 08:28:00,
2013-01-16 01:33:00,16.2,-4.4,30.21,NW,315,0.0,0.0,39,0.00,,---,0.00,VWS V14.01,2013-01-16 08:33:00,
2013-01-16 01:38:00,16.2,-3.3,30.21,ENE,68,1.8,1.8,41,0.00,,---,0.00,VWS V14.01,2013-01-16 08:38:00,
2013-01-16 01:43:00,16.4,-3.7,30.22,NE,45,1.3,1.3,40,0.00,,---,0.00,VWS V14.01,2013-01-16 08:43:00,
2013-01-16 01:48:00,16.9,-4.9,30.22,NNE,22,0.4,0.4,37,0.00,,---,0.00,VWS V14.01,2013-01-16 08:48:00,
2013-01-16 01:53:00,16.9,-6.0,30.22,North,0,0.4,0.4,35,0.00,,---,0.00,VWS V14.01,2013-01-16 08:53:00,
2013-01-16 01:58:00,16.7,-5.6,30.21,NNE,22,2.2,2.2,36,0.00,,---,0.00,VWS V14.01,2013-01-16 08:58:00,
2013-01-16 02:03:00,16.6,-5.1,30.22,NW,315,0.0,0.0,37,0.00,,---,0.00,VWS V14.01,2013-01-16 09:03:00,
2013-01-16 02:08:00,16.2,-7.2,30.22,NNW,338,0.0,0.0,34,0.00,,---,0.00,VWS V14.01,2013-01-16 09:08:00,
2013-01-16 02:13:00,16.0,-6.8,30.21,NW,315,0.0,0.0,35,0.00,,---,0.00,VWS V14.01,2013-01-16 09:13:00,
2013-01-16 02:18:00,15.8,-3.2,30.21,ENE,68,0.9,1.8,42,0.00,,---,0.00,VWS V14.01,2013-01-16 09:18:00,
2013-01-16 02:23:00,16.2,-4.4,30.21,North,0,1.1,1.1,39,0.00,,---,0.00,VWS V14.01,2013-01-16 09:23:00,
2013-01-16 02:28:00,16.4,-4.8,30.21,North,0,0.2,0.2,38,0.00,,---,0.00,VWS V14.01,2013-01-16 09:28:00,
2013-01-16 02:33:00,16.2,-4.4,30.22,North,0,0.0,0.0,39,0.00,,---,0.00,VWS V14.01,2013-01-16 09:33:00,
2013-01-16 02:38:00,16.2,-2.8,30.22,North,0,0.2,0.2,42,0.00,,---,0.00,VWS V14.01,2013-01-16 09:38:00,
2013-01-16 02:43:00,16.0,-2.5,30.22,NNE,22,2.5,2.5,43,0.00,,---,0.00,VWS V14.01,2013-01-16 09:43:00,
2013-01-16 02:48:00,16.2,-3.3,30.22,North,0,2.5,2.5,41,0.00,,---,0.00,VWS V14.01,2013-01-16 09:48:00,
2013-01-16 02:53:00,16.2,-2.8,30.22,NNE,22,1.8,1.8,42,0.00,,---,0.00,VWS V14.01,2013-01-16 09:53:00,
2013-01-16 02:58:00,16.4,-3.7,30.22,NNE,22,0.4,0.4,40,0.00,,---,0.00,VWS V14.01,2013-01-16 09:58:00,
2013-01-16 03:03:00,16.2,-3.3,30.22,NE,45,0.4,0.4,41,0.00,,---,0.00,VWS V14.01,2013-01-16 10:03:00,
2013-01-16 03:08:00,16.2,-3.9,30.22,South,180,0.4,0.4,40,0.00,,---,0.00,VWS V14.01,2013-01-16 10:08:00,
2013-01-16 03:13:00,16.2,-3.3,30.22,South,180,0.0,0.0,41,0.00,,---,0.00,VWS V14.01,2013-01-16 10:13:00,
2013-01-16 03:18:00,16.2,-3.3,30.23,WNW,292,0.2,0.2,41,0.00,,---,0.00,VWS V14.01,2013-01-16 10:18:00,
2013-01-16 03:23:00,16.2,-3.3,30.22,NW,315,0.0,0.0,41,0.00,,---,0.00,VWS V14.01,2013-01-16 10:23:00,
2013-01-16 03:28:00,16.2,-2.8,30.22,WSW,248,0.0,0.0,42,0.00,,---,0.00,VWS V14.01,2013-01-16 10:28:00,
2013-01-16 03:33:00,16.2,-2.4,30.22,WSW,248,0.0,0.0,43,0.00,,---,0.00,VWS V14.01,2013-01-16 10:33:00,
2013-01-16 03:38:00,16.4,-4.2,30.22,West,270,0.2,0.2,39,0.00,,---,0.00,VWS V14.01,2013-01-16 10:38:00,
2013-01-16 03:43:00,16.0,-5.1,30.23,North,0,0.0,0.0,38,0.00,,---,0.01,VWS V14.01,2013-01-16 10:43:00,
2013-01-16 03:48:00,15.7,-2.8,30.22,North,0,0.0,0.0,43,0.00,,---,0.00,VWS V14.01,2013-01-16 10:48:00,
2013-01-16 03:53:00,16.0,-0.2,30.22,North,0,0.0,0.0,48,0.00,,---,0.00,VWS V14.01,2013-01-16 10:53:00,
2013-01-16 03:58:00,16.7,0.0,30.22,NNE,22,0.2,0.2,47,0.00,,---,0.00,VWS V14.01,2013-01-16 10:58:00,
2013-01-16 04:03:00,16.7,-1.9,30.22,NE,45,0.2,0.2,43,0.00,,---,0.01,VWS V14.01,2013-01-16 11:03:00,
2013-01-16 04:08:00,16.7,-3.9,30.22,NNE,22,0.4,0.4,39,0.00,,---,0.00,VWS V14.01,2013-01-16 11:08:00,
2013-01-16 04:13:00,16.7,-2.9,30.22,NE,45,1.8,1.8,41,0.00,,---,0.00,VWS V14.01,2013-01-16 11:13:00,
2013-01-16 04:18:00,17.5,-4.3,30.22,North,0,4.9,4.9,37,0.00,,---,0.00,VWS V14.01,2013-01-16 11:18:00,
2013-01-16 04:23:00,18.2,-8.0,30.21,NNE,22,4.7,4.7,30,0.00,,---,0.00,VWS V14.01,2013-01-16 11:23:00,
2013-01-16 04:28:00,18.4,-9.2,30.21,NNE,22,5.6,5.6,28,0.00,,---,0.00,VWS V14.01,2013-01-16 11:28:00,
2013-01-16 04:33:00,18.7,-11.3,30.21,NE,45,5.4,5.4,25,0.00,,---,0.00,VWS V14.01,2013-01-16 11:33:00,
2013-01-16 04:38:00,18.7,-12.1,30.21,NNE,22,5.4,5.4,24,0.00,,---,0.00,VWS V14.01,2013-01-16 11:38:00,
2013-01-16 04:43:00,19.1,-11.8,30.21,NNE,22,2.7,2.7,24,0.00,,---,0.00,VWS V14.01,2013-01-16 11:43:00,
2013-01-16 04:48:00,19.1,-13.5,30.21,ENE,68,4.7,4.7,22,0.00,,---,0.00,VWS V14.01,2013-01-16 11:48:00,
2013-01-16 04:53:00,19.1,-13.5,30.21,North,0,4.7,4.7,22,0.00,,---,0.00,VWS V14.01,2013-01-16 11:53:00,
2013-01-16 04:58:00,19.3,-14.2,30.21,NNE,22,2.0,2.0,21,0.00,,---,0.00,VWS V14.01,2013-01-16 11:58:00,
2013-01-16 05:03:00,19.3,-15.2,30.21,NNE,22,2.2,2.2,20,0.00,,---,0.00,VWS V14.01,2013-01-16 12:03:00,
2013-01-16 05:08:00,19.1,-13.5,30.21,NE,45,2.5,2.5,22,0.00,,---,0.00,VWS V14.01,2013-01-16 12:08:00,
2013-01-16 05:13:00,19.1,-13.5,30.21,NNW,338,2.5,2.5,22,0.00,,---,0.00,VWS V14.01,2013-01-16 12:13:00,
2013-01-16 05:18:00,18.7,-12.1,30.21,NW,315,0.7,0.7,24,0.00,,---,0.00,VWS V14.01,2013-01-16 12:18:00,
2013-01-16 05:23:00,18.2,-10.2,30.21,WNW,292,2.0,2.0,27,0.00,,---,0.00,VWS V14.01,2013-01-16 12:23:00,
2013-01-16 05:28:00,17.6,-9.2,30.21,WNW,292,0.9,0.9,29,0.00,,---,0.00,VWS V14.01,2013-01-16 12:28:00,
2013-01-16 05:33:00,17.5,-6.1,30.21,WSW,248,0.2,0.2,34,0.00,,---,0.00,VWS V14.01,2013-01-16 12:33:00,
2013-01-16 05:38:00,16.9,-4.9,30.21,WSW,248,0.2,0.2,37,0.00,,---,0.00,VWS V14.01,2013-01-16 12:38:00,
2013-01-16 05:43:00,16.6,-5.1,30.21,WSW,248,0.0,0.0,37,0.00,,---,0.00,VWS V14.01,2013-01-16 12:43:00,
2013-01-16 05:48:00,16.2,-2.4,30.22,SW,225,0.4,0.4,43,0.00,,---,0.00,VWS V14.01,2013-01-16 12:48:00,
2013-01-16 05:53:00,16.2,-4.4,30.22,SW,225,0.0,0.0,39,0.00,,---,0.00,VWS V14.01,2013-01-16 12:53:00,
2013-01-16 05:58:00,15.8,-4.2,30.22,SSE,158,0.0,0.0,40,0.00,,---,0.00,VWS V14.01,2013-01-16 12:58:00,
2013-01-16 06:03:00,15.5,-3.5,30.22,SSW,202,0.0,0.0,42,0.00,,---,0.01,VWS V14.01,2013-01-16 13:03:00,
2013-01-16 06:08:00,15.5,0.6,30.22,WSW,248,0.2,0.2,51,0.00,,---,0.00,VWS V14.01,2013-01-16 13:08:00,
2013-01-16 06:12:00,15.5,-1.1,30.22,West,270,0.0,0.0,47,0.00,,---,0.00,VWS V14.01,2013-01-16 13:12:00,
2013-01-16 06:17:00,15.5,-2.0,30.22,West,270,0.0,0.0,45,0.00,,---,0.00,VWS V14.01,2013-01-16 13:17:00,
2013-01-16 06:22:00,15.5,2.6,30.22,WSW,248,0.0,0.0,56,0.00,,---,0.00,VWS V14.01,2013-01-16 13:22:00,
2013-01-16 06:27:00,15.3,-0.9,30.22,NNE,22,0.2,0.2,48,0.00,,---,0.00,VWS V14.01,2013-01-16 13:27:00,
2013-01-16 06:32:00,14.9,1.3,30.22,NNE,22,0.4,0.4,54,0.00,,---,0.00,VWS V14.01,2013-01-16 13:32:00,
2013-01-16 06:37:00,15.1,3.4,30.22,NW,315,0.2,0.2,59,0.00,,---,0.00,VWS V14.01,2013-01-16 13:37:00,
2013-01-16 06:42:00,14.9,3.5,30.22,NW,315,0.0,0.0,60,0.00,,---,0.00,VWS V14.01,2013-01-16 13:42:00,
2013-01-16 06:47:00,15.1,4.1,30.22,WNW,292,0.0,0.0,61,0.00,,---,0.00,VWS V14.01,2013-01-16 13:47:00,
2013-01-16 06:52:00,14.8,2.7,30.22,WNW,292,0.0,0.0,58,0.00,,---,0.00,VWS V14.01,2013-01-16 13:52:00,
2013-01-16 06:57:00,14.6,2.2,30.23,ENE,68,0.0,0.0,57,0.00,,---,0.00,VWS V14.01,2013-01-16 13:57:00,
2013-01-16 07:02:00,14.8,6.8,30.23,ENE,68,0.0,0.0,70,0.00,,---,0.00,VWS V14.01,2013-01-16 14:02:00,
2013-01-16 07:07:00,15.1,6.5,30.23,ENE,68,0.0,0.0,68,0.00,,---,0.00,VWS V14.01,2013-01-16 14:07:00,
2013-01-16 07:12:00,14.8,3.8,30.23,ENE,68,0.0,0.0,61,0.00,,---,0.00,VWS V14.01,2013-01-16 14:12:00,
2013-01-16 07:17:00,14.6,3.2,30.24,ENE,68,0.0,0.0,60,0.00,,---,0.00,VWS V14.01,2013-01-16 14:17:00,
2013-01-16 07:22:00,14.6,4.7,30.24,ENE,68,0.0,0.0,64,0.00,,---,0.00,VWS V14.01,2013-01-16 14:22:00,
2013-01-16 07:27:00,14.6,4.0,30.24,NE,45,0.0,0.0,62,0.00,,---,0.00,VWS V14.01,2013-01-16 14:27:00,
2013-01-16 07:32:00,14.8,6.2,30.24,NE,45,0.0,0.0,68,0.00,,---,0.00,VWS V14.01,2013-01-16 14:32:00,
2013-01-16 07:37:00,14.8,7.1,30.24,NE,45,0.0,0.0,71,0.00,,---,0.00,VWS V14.01,2013-01-16 14:37:00,
2013-01-16 07:42:00,15.5,9.3,30.24,ENE,68,0.0,0.0,76,0.00,,---,0.00,VWS V14.01,2013-01-16 14:42:00,
2013-01-16 07:47:00,17.1,9.0,30.24,South,180,0.0,0.0,70,0.00,,---,0.00,VWS V14.01,2013-01-16 14:47:00,
2013-01-16 07:52:00,18.4,3.7,30.24,SSW,202,0.2,0.2,52,0.00,,---,0.00,VWS V14.01,2013-01-16 14:52:00,
2013-01-16 07:57:00,19.3,1.9,30.24,SSW,202,0.2,0.2,46,0.00,,---,0.00,VWS V14.01,2013-01-16 14:57:00,
2013-01-16 08:02:00,20.5,5.7,30.25,NNE,22,0.0,0.0,52,0.00,,---,0.00,VWS V14.01,2013-01-16 15:02:00,
2013-01-16 08:07:00,21.6,-5.0,30.25,SE,135,0.0,0.0,30,0.00,,---,0.00,VWS V14.01,2013-01-16 15:07:00,
2013-01-16 08:12:00,21.8,-6.3,30.26,ESE,112,0.4,0.4,28,0.00,,---,0.00,VWS V14.01,2013-01-16 15:12:00,
2013-01-16 08:17:00,21.8,-10.3,30.26,SE,135,0.0,0.0,23,0.00,,---,0.00,VWS V14.01,2013-01-16 15:17:00,
2013-01-16 08:22:00,20.5,-8.2,30.26,SSE,158,0.4,0.4,27,0.00,,---,0.00,VWS V14.01,2013-01-16 15:22:00,
2013-01-16 08:27:00,20.9,-7.1,30.26,SSE,158,0.9,0.9,28,0.00,,---,0.00,VWS V14.01,2013-01-16 15:27:00,
2013-01-16 08:32:00,21.2,-7.6,30.26,ESE,112,0.2,0.2,27,0.00,,---,0.00,VWS V14.01,2013-01-16 15:32:00,
2013-01-16 08:37:00,21.4,-7.4,30.26,SE,135,0.0,0.0,27,0.00,,---,0.00,VWS V14.01,2013-01-16 15:37:00,
2013-01-16 08:42:00,22.3,-11.7,30.26,SSE,158,0.2,0.2,21,0.00,,---,0.00,VWS V14.01,2013-01-16 15:42:00,
2013-01-16 08:47:00,22.5,-11.5,30.27,SE,135,0.0,0.0,21,0.00,,---,0.00,VWS V14.01,2013-01-16 15:47:00,
2013-01-16 08:52:00,23.6,-13.7,30.27,SSE,158,0.0,0.0,18,0.00,,---,0.00,VWS V14.01,2013-01-16 15:52:00,
2013-01-16 08:57:00,23.4,-15.0,30.27,SSW,202,1.1,1.1,17,0.00,,---,0.00,VWS V14.01,2013-01-16 15:57:00,
2013-01-16 09:02:00,22.0,-16.1,30.27,SW,225,0.2,0.2,17,0.00,,---,0.00,VWS V14.01,2013-01-16 16:02:00,
2013-01-16 09:07:00,22.0,-11.9,30.27,SW,225,1.1,1.1,21,0.00,,---,0.00,VWS V14.01,2013-01-16 16:07:00,
2013-01-16 09:12:00,22.1,-12.8,30.27,SW,225,0.9,0.9,20,0.00,,---,0.00,VWS V14.01,2013-01-16 16:12:00,
2013-01-16 09:17:00,22.3,-9.0,30.27,SW,225,0.2,0.2,24,0.00,,---,0.00,VWS V14.01,2013-01-16 16:17:00,
2013-01-16 09:22:00,22.5,-8.0,30.27,SW,225,0.4,0.4,25,0.00,,---,0.00,VWS V14.01,2013-01-16 16:22:00,
2013-01-16 09:27:00,22.7,-7.0,30.28,SW,225,1.6,1.6,26,0.00,,---,0.00,VWS V14.01,2013-01-16 16:27:00,
2013-01-16 09:32:00,23.2,-3.6,30.28,SW,225,0.2,0.2,30,0.00,,---,0.00,VWS V14.01,2013-01-16 16:32:00,
2013-01-16 09:37:00,24.8,-7.7,30.27,SSW,202,2.9,2.9,23,0.00,,---,0.00,VWS V14.01,2013-01-16 16:37:00,
2013-01-16 09:42:00,25.7,-4.4,30.27,West,270,2.5,2.5,26,0.00,,---,0.00,VWS V14.01,2013-01-16 16:42:00,
2013-01-16 09:47:00,26.3,-5.6,30.27,West,270,2.7,2.7,24,0.00,,---,0.00,VWS V14.01,2013-01-16 16:47:00,
2013-01-16 09:52:00,27.0,-4.1,30.27,NNW,338,2.2,2.2,25,0.00,,---,0.00,VWS V14.01,2013-01-16 16:52:00,
2013-01-16 09:57:00,27.2,-7.6,30.27,NW,315,4.0,4.0,21,0.00,,---,0.00,VWS V14.01,2013-01-16 16:57:00,
2013-01-16 10:02:00,27.0,-7.7,30.27,NW,315,5.6,5.6,21,0.00,,---,0.00,VWS V14.01,2013-01-16 17:02:00,
2013-01-16 10:07:00,27.0,-7.7,30.27,WNW,292,5.4,5.4,21,0.00,,---,0.00,VWS V14.01,2013-01-16 17:07:00,
2013-01-16 10:12:00,27.4,-4.6,30.27,NW,315,4.0,4.0,24,0.00,,---,0.00,VWS V14.01,2013-01-16 17:12:00,
2013-01-16 10:17:00,27.4,-4.6,30.27,NW,315,4.3,4.3,24,0.00,,---,0.00,VWS V14.01,2013-01-16 17:17:00,
2013-01-16 10:22:00,28.1,-2.4,30.27,WNW,292,0.9,0.9,26,0.00,,---,0.00,VWS V14.01,2013-01-16 17:22:00,
2013-01-16 10:27:00,28.1,-4.9,30.27,NNW,338,6.0,6.0,23,0.00,,---,0.00,VWS V14.01,2013-01-16 17:27:00,
2013-01-16 10:32:00,28.3,-4.8,30.26,NNW,338,3.1,3.1,23,0.00,,---,0.00,VWS V14.01,2013-01-16 17:32:00,
2013-01-16 10:37:00,27.7,-4.4,30.26,North,0,6.0,6.0,24,0.00,,---,0.00,VWS V14.01,2013-01-16 17:37:00,
2013-01-16 10:42:00,27.7,-4.4,30.26,WNW,292,2.9,2.9,24,0.00,,---,0.00,VWS V14.01,2013-01-16 17:42:00,
2013-01-16 10:47:00,27.9,-1.7,30.26,NW,315,4.5,4.5,27,0.00,,---,0.00,VWS V14.01,2013-01-16 17:47:00,
2013-01-16 10:52:00,27.7,-1.9,30.25,NNW,338,2.5,2.5,27,0.00,,---,0.00,VWS V14.01,2013-01-16 17:52:00,
2013-01-16 10:57:00,28.3,-2.2,30.25,NW,315,7.6,7.6,26,0.00,,---,0.00,VWS V14.01,2013-01-16 17:57:00,
2013-01-16 11:02:00,28.8,-1.0,30.25,North,0,3.8,3.8,27,0.00,,---,0.00,VWS V14.01,2013-01-16 18:02:00,
2013-01-16 11:07:00,29.2,-0.6,30.25,NNW,338,1.8,1.8,27,0.00,,---,0.00,VWS V14.01,2013-01-16 18:07:00,
2013-01-16 11:12:00,28.4,-2.1,30.25,NNW,338,4.0,4.0,26,0.00,,---,0.00,VWS V14.01,2013-01-16 18:12:00,
2013-01-16 11:17:00,28.4,-0.5,30.25,NNW,338,3.1,3.1,28,0.00,,---,0.00,VWS V14.01,2013-01-16 18:17:00,
2013-01-16 11:22:00,28.4,-1.3,30.24,WNW,292,2.9,5.6,27,0.00,,---,0.00,VWS V14.01,2013-01-16 18:22:00,
2013-01-16 11:27:00,28.8,0.6,30.24,NNW,338,4.7,4.7,29,0.00,,---,0.00,VWS V14.01,2013-01-16 18:27:00,
2013-01-16 11:32:00,29.2,0.9,30.23,NW,315,3.8,3.8,29,0.00,,---,0.00,VWS V14.01,2013-01-16 18:32:00,
2013-01-16 11:37:00,29.5,-0.3,30.23,NNW,338,4.3,4.3,27,0.00,,---,0.00,VWS V14.01,2013-01-16 18:37:00,
2013-01-16 11:42:00,29.9,0.0,30.23,WNW,292,4.5,4.5,27,0.00,,---,0.00,VWS V14.01,2013-01-16 18:42:00,
2013-01-16 11:47:00,30.6,1.4,30.23,WNW,292,5.4,5.4,28,0.00,,---,0.00,VWS V14.01,2013-01-16 18:47:00,
2013-01-16 11:52:00,30.6,0.6,30.22,NNW,338,5.1,5.1,27,0.00,,---,0.00,VWS V14.01,2013-01-16 18:52:00,
2013-01-16 11:57:00,31.1,2.6,30.22,WNW,292,5.8,5.8,29,0.00,,---,0.00,VWS V14.01,2013-01-16 18:57:00,
2013-01-16 12:02:00,30.6,1.4,30.22,NW,315,4.9,4.9,28,0.00,,---,0.00,VWS V14.01,2013-01-16 19:02:00,
2013-01-16 12:07:00,30.2,1.0,30.22,NNW,338,4.0,4.0,28,0.00,,---,0.00,VWS V14.01,2013-01-16 19:07:00,
2013-01-16 12:12:00,30.6,2.9,30.22,WNW,292,1.1,1.1,30,0.00,,---,0.00,VWS V14.01,2013-01-16 19:12:00,
2013-01-16 12:17:00,30.6,2.1,30.22,NW,315,2.5,2.5,29,0.00,,---,0.00,VWS V14.01,2013-01-16 19:17:00,
2013-01-16 12:22:00,30.4,2.7,30.22,WNW,292,2.9,2.9,30,0.00,,---,0.00,VWS V14.01,2013-01-16 19:22:00,
2013-01-16 12:27:00,31.1,4.0,30.21,NNW,338,1.6,1.6,31,0.00,,---,0.00,VWS V14.01,2013-01-16 19:27:00,
2013-01-16 12:32:00,32.0,4.1,30.21,NW,315,4.7,4.7,30,0.00,,---,0.00,VWS V14.01,2013-01-16 19:32:00,
2013-01-16 12:37:00,32.0,4.1,30.21,WSW,248,4.5,4.5,30,0.00,,---,0.00,VWS V14.01,2013-01-16 19:37:00,
2013-01-16 12:42:00,32.0,4.8,30.21,WNW,292,3.4,3.4,31,0.00,,---,0.00,VWS V14.01,2013-01-16 19:42:00,
2013-01-16 12:47:00,32.8,5.5,30.20,NNW,338,3.6,3.6,31,0.00,,---,0.00,VWS V14.01,2013-01-16 19:47:00,
2013-01-16 12:52:00,32.4,5.8,30.20,NNW,338,5.4,5.4,32,0.00,,---,0.00,VWS V14.01,2013-01-16 19:52:00,
2013-01-16 12:57:00,32.8,4.8,30.20,NW,315,6.7,6.7,30,0.00,,---,0.00,VWS V14.01,2013-01-16 19:57:00,
2013-01-16 13:02:00,32.6,5.3,30.19,WNW,292,4.5,4.5,31,0.00,,---,0.01,VWS V14.01,2013-01-16 20:02:00,
2013-01-16 13:07:00,32.9,4.9,30.20,North,0,2.2,2.2,30,0.00,,---,0.00,VWS V14.01,2013-01-16 20:07:00,
2013-01-16 13:12:00,32.8,5.5,30.20,West,270,4.7,4.7,31,0.00,,---,0.00,VWS V14.01,2013-01-16 20:12:00,
2013-01-16 13:17:00,32.9,6.3,30.20,North,0,2.5,2.5,32,0.00,,---,0.00,VWS V14.01,2013-01-16 20:17:00,
2013-01-16 13:22:00,32.8,6.2,30.19,NNW,338,4.7,4.7,32,0.00,,---,0.00,VWS V14.01,2013-01-16 20:22:00,
2013-01-16 13:27:00,33.8,6.4,30.20,NW,315,6.9,6.9,31,0.00,,---,0.00,VWS V14.01,2013-01-16 20:27:00,
2013-01-16 13:32:00,33.8,6.4,30.19,WNW,292,8.1,8.1,31,0.00,,---,0.00,VWS V14.01,2013-01-16 20:32:00,
2013-01-16 13:37:00,33.8,6.4,30.19,North,0,3.8,3.8,31,0.00,,---,0.00,VWS V14.01,2013-01-16 20:37:00,
2013-01-16 13:42:00,34.2,6.7,30.19,North,0,5.4,5.4,31,0.00,,---,0.00,VWS V14.01,2013-01-16 20:42:00,
2013-01-16 13:47:00,34.4,6.9,30.18,WNW,292,4.9,4.9,31,0.00,,---,0.00,VWS V14.01,2013-01-16 20:47:00,
2013-01-16 13:52:00,35.6,7.2,30.18,NW,315,3.4,3.4,30,0.00,,---,0.00,VWS V14.01,2013-01-16 20:52:00,
2013-01-16 13:57:00,35.1,6.8,30.18,North,0,6.9,6.9,30,0.00,,---,0.00,VWS V14.01,2013-01-16 20:57:00,
2013-01-16 14:02:00,34.9,7.3,30.17,West,270,4.7,4.7,31,0.00,,---,0.00,VWS V14.01,2013-01-16 21:02:00,
2013-01-16 14:07:00,35.1,7.5,30.17,NNW,338,7.2,7.2,31,0.00,,---,0.00,VWS V14.01,2013-01-16 21:07:00,
2013-01-16 14:12:00,35.1,7.5,30.17,NW,315,6.3,6.3,31,0.00,,---,0.00,VWS V14.01,2013-01-16 21:12:00,
2013-01-16 14:17:00,35.6,8.7,30.17,NW,315,4.5,4.5,32,0.00,,---,0.00,VWS V14.01,2013-01-16 21:17:00,
2013-01-16 14:22:00,35.8,8.1,30.17,West,270,3.4,3.4,31,0.00,,---,0.00,VWS V14.01,2013-01-16 21:22:00,
2013-01-16 14:27:00,36.0,9.0,30.17,WNW,292,5.4,5.4,32,0.00,,---,0.00,VWS V14.01,2013-01-16 21:27:00,
2013-01-16 14:32:00,35.8,8.8,30.17,NE,45,6.0,6.0,32,0.00,,---,0.00,VWS V14.01,2013-01-16 21:32:00,
2013-01-16 14:37:00,36.2,8.5,30.17,NW,315,4.5,4.5,31,0.00,,---,0.00,VWS V14.01,2013-01-16 21:37:00,
2013-01-16 14:42:00,36.4,8.7,30.17,NW,315,6.9,6.9,31,0.00,,---,0.00,VWS V14.01,2013-01-16 21:42:00,
2013-01-16 14:47:00,36.2,9.2,30.17,NNW,338,6.0,6.0,32,0.00,,---,0.00,VWS V14.01,2013-01-16 21:47:00,
2013-01-16 14:52:00,36.2,9.9,30.17,NW,315,7.4,7.4,33,0.00,,---,0.00,VWS V14.01,2013-01-16 21:52:00,
2013-01-16 14:57:00,36.5,9.5,30.18,North,0,7.6,7.6,32,0.00,,---,0.00,VWS V14.01,2013-01-16 21:57:00,
2013-01-16 15:02:00,37.1,10.0,30.17,North,0,3.4,3.4,32,0.00,,---,0.00,VWS V14.01,2013-01-16 22:02:00,
2013-01-16 15:07:00,37.1,10.0,30.18,NNW,338,4.0,4.0,32,0.00,,---,0.00,VWS V14.01,2013-01-16 22:07:00,
2013-01-16 15:12:00,37.8,10.6,30.18,NNW,338,4.9,4.9,32,0.00,,---,0.00,VWS V14.01,2013-01-16 22:12:00,
2013-01-16 15:17:00,38.7,10.7,30.18,North,0,2.5,2.5,31,0.00,,---,0.00,VWS V14.01,2013-01-16 22:17:00,
2013-01-16 15:22:00,39.2,11.1,30.18,NW,315,4.5,4.5,31,0.00,,---,0.00,VWS V14.01,2013-01-16 22:22:00,
2013-01-16 15:27:00,39.6,11.5,30.18,NNE,22,4.7,7.6,31,0.00,,---,0.00,VWS V14.01,2013-01-16 22:27:00,
2013-01-16 15:32:00,38.5,10.5,30.18,NNE,22,8.5,8.5,31,0.00,,---,0.00,VWS V14.01,2013-01-16 22:32:00,
2013-01-16 15:37:00,38.7,11.4,30.17,NW,315,3.1,3.1,32,0.00,,---,0.00,VWS V14.01,2013-01-16 22:37:00,
2013-01-16 15:42:00,39.2,11.1,30.18,NNE,22,7.6,7.6,31,0.00,,---,0.00,VWS V14.01,2013-01-16 22:42:00,
2013-01-16 15:47:00,39.6,11.5,30.18,North,0,9.2,9.2,31,0.00,,---,0.00,VWS V14.01,2013-01-16 22:47:00,
2013-01-16 15:52:00,38.9,11.6,30.18,NNW,338,3.6,3.6,32,0.00,,---,0.00,VWS V14.01,2013-01-16 22:52:00,
2013-01-16 15:57:00,40.0,11.8,30.18,North,0,6.5,6.5,31,0.00,,---,0.00,VWS V14.01,2013-01-16 22:57:00,
2013-01-16 16:02:00,39.2,11.1,30.18,NNE,22,5.6,5.6,31,0.00,,---,0.00,VWS V14.01,2013-01-16 23:02:00,
2013-01-16 16:07:00,39.6,12.2,30.18,North,0,6.3,6.3,32,0.00,,---,0.00,VWS V14.01,2013-01-16 23:07:00,
2013-01-16 16:12:00,39.2,11.8,30.18,NW,315,8.5,8.5,32,0.00,,---,0.00,VWS V14.01,2013-01-16 23:12:00,
2013-01-16 16:17:00,39.2,11.8,30.18,NNW,338,6.3,6.3,32,0.00,,---,0.00,VWS V14.01,2013-01-16 23:17:00,
2013-01-16 16:22:00,39.6,11.5,30.18,NNE,22,6.5,6.5,31,0.00,,---,0.00,VWS V14.01,2013-01-16 23:22:00,
2013-01-16 16:27:00,38.9,11.6,30.18,NNE,22,4.7,4.7,32,0.00,,---,0.00,VWS V14.01,2013-01-16 23:27:00,
2013-01-16 16:32:00,39.1,12.4,30.19,NNW,338,6.0,6.0,33,0.00,,---,0.00,VWS V14.01,2013-01-16 23:32:00,
2013-01-16 16:37:00,38.9,12.3,30.18,NNE,22,4.9,4.9,33,0.00,,---,0.00,VWS V14.01,2013-01-16 23:37:00,
2013-01-16 16:42:00,38.9,12.3,30.18,NW,315,5.1,5.1,33,0.00,,---,0.00,VWS V14.01,2013-01-16 23:42:00,
2013-01-16 16:47:00,38.2,11.6,30.19,North,0,2.0,2.0,33,0.00,,---,0.00,VWS V14.01,2013-01-16 23:47:00,
2013-01-16 16:52:00,37.8,12.6,30.19,NNW,338,3.6,3.6,35,0.00,,---,0.00,VWS V14.01,2013-01-16 23:52:00,
2013-01-16 16:57:00,37.8,12.6,30.19,NNW,338,3.8,3.8,35,0.00,,---,0.00,VWS V14.01,2013-01-16 23:57:00,
2013-01-16 17:02:00,37.4,12.3,30.19,North,0,4.0,4.0,35,0.00,,---,0.00,VWS V14.01,2013-01-17 00:02:00,
2013-01-16 17:07:00,36.2,12.4,30.19,NW,315,3.6,3.6,37,0.00,,---,0.00,VWS V14.01,2013-01-17 00:07:00,
2013-01-16 17:12:00,35.6,11.9,30.19,WNW,292,5.4,5.4,37,0.00,,---,0.00,VWS V14.01,2013-01-17 00:12:00,
2013-01-16 17:17:00,35.3,12.2,30.20,North,0,3.6,3.6,38,0.00,,---,0.00,VWS V14.01,2013-01-17 00:17:00,
2013-01-16 17:22:00,35.1,12.1,30.20,NNW,338,2.0,2.0,38,0.00,,---,0.00,VWS V14.01,2013-01-17 00:22:00,
2013-01-16 17:27:00,34.7,12.3,30.21,NNW,338,5.1,5.1,39,0.00,,---,0.00,VWS V14.01,2013-01-17 00:27:00,
2013-01-16 17:32:00,34.4,12.6,30.21,NNW,338,4.0,4.0,40,0.00,,---,0.00,VWS V14.01,2013-01-17 00:32:00,
2013-01-16 17:37:00,34.2,12.4,30.21,NNW,338,4.3,4.3,40,0.00,,---,0.00,VWS V14.01,2013-01-17 00:37:00,
2013-01-16 17:42:00,33.8,12.1,30.21,NNW,338,3.4,3.4,40,0.00,,---,0.00,VWS V14.01,2013-01-17 00:42:00,
2013-01-16 17:47:00,33.7,12.5,30.21,NNE,22,2.9,2.9,41,0.00,,---,0.00,VWS V14.01,2013-01-17 00:47:00,
2013-01-16 17:52:00,33.5,12.3,30.21,North,0,2.7,2.7,41,0.00,,---,0.00,VWS V14.01,2013-01-17 00:52:00,
2013-01-16 17:57:00,33.1,12.0,30.21,NNE,22,1.8,1.8,41,0.00,,---,0.00,VWS V14.01,2013-01-17 00:57:00,
2013-01-16 18:02:00,32.9,11.8,30.21,North,0,1.8,1.8,41,0.00,,---,0.00,VWS V14.01,2013-01-17 01:02:00,
2013-01-16 18:07:00,32.8,11.7,30.21,NW,315,1.8,1.8,41,0.00,,---,0.00,VWS V14.01,2013-01-17 01:07:00,
2013-01-16 18:12:00,32.6,11.5,30.21,NW,315,3.6,4.5,41,0.00,,---,0.00,VWS V14.01,2013-01-17 01:12:00,
2013-01-16 18:17:00,32.4,11.3,30.21,North,0,2.9,2.9,41,0.00,,---,0.00,VWS V14.01,2013-01-17 01:17:00,
2013-01-16 18:22:00,32.2,11.2,30.22,North,0,3.4,3.4,41,0.00,,---,0.00,VWS V14.01,2013-01-17 01:22:00,
2013-01-16 18:27:00,32.0,11.0,30.22,NNW,338,1.8,1.8,41,0.00,,---,0.00,VWS V14.01,2013-01-17 01:27:00,
2013-01-16 18:31:00,32.0,11.0,30.22,North,0,3.4,3.4,41,0.00,,---,0.00,VWS V14.01,2013-01-17 01:31:00,
2013-01-16 18:36:00,31.9,10.9,30.22,North,0,2.5,2.5,41,0.00,,---,0.00,VWS V14.01,2013-01-17 01:36:00,
2013-01-16 18:41:00,31.9,10.9,30.23,WNW,292,3.4,3.4,41,0.00,,---,0.00,VWS V14.01,2013-01-17 01:41:00,
2013-01-16 18:46:00,31.7,10.7,30.23,North,0,2.0,2.0,41,0.00,,---,0.00,VWS V14.01,2013-01-17 01:46:00,
2013-01-16 18:51:00,31.3,10.9,30.23,NNE,22,2.7,2.7,42,0.00,,---,0.00,VWS V14.01,2013-01-17 01:51:00,
2013-01-16 18:56:00,31.1,10.7,30.23,North,0,3.8,3.8,42,0.00,,---,0.00,VWS V14.01,2013-01-17 01:56:00,
2013-01-16 19:01:00,30.8,10.4,30.23,NNW,338,1.3,1.3,42,0.00,,---,0.00,VWS V14.01,2013-01-17 02:01:00,
2013-01-16 19:06:00,30.4,10.6,30.23,North,0,4.7,4.7,43,0.00,,---,0.00,VWS V14.01,2013-01-17 02:06:00,
2013-01-16 19:11:00,30.2,10.9,30.23,NNE,22,2.9,2.9,44,0.00,,---,0.00,VWS V14.01,2013-01-17 02:11:00,
2013-01-16 19:16:00,30.1,10.8,30.23,NNE,22,0.4,0.4,44,0.00,,---,0.00,VWS V14.01,2013-01-17 02:16:00,
2013-01-16 19:21:00,29.9,11.2,30.23,North,0,1.1,1.1,45,0.00,,---,0.00,VWS V14.01,2013-01-17 02:21:00,
2013-01-16 19:26:00,29.9,11.2,30.23,NNW,338,1.6,1.6,45,0.00,,---,0.00,VWS V14.01,2013-01-17 02:26:00,
2013-01-16 19:31:00,29.9,10.6,30.23,NNW,338,0.4,0.4,44,0.00,,---,0.00,VWS V14.01,2013-01-17 02:31:00,
2013-01-16 19:36:00,30.1,10.8,30.23,NW,315,1.1,1.1,44,0.00,,---,0.00,VWS V14.01,2013-01-17 02:36:00,
2013-01-16 19:41:00,29.9,10.6,30.23,NNW,338,2.5,2.5,44,0.00,,---,0.00,VWS V14.01,2013-01-17 02:41:00,
2013-01-16 19:46:00,29.9,10.6,30.23,NNW,338,1.3,1.3,44,0.00,,---,0.00,VWS V14.01,2013-01-17 02:46:00,
2013-01-16 19:51:00,29.7,10.5,30.24,NW,315,1.3,1.3,44,0.00,,---,0.00,VWS V14.01,2013-01-17 02:51:00,
2013-01-16 19:56:00,29.5,10.8,30.24,WNW,292,1.8,1.8,45,0.00,,---,0.00,VWS V14.01,2013-01-17 02:56:00,
2013-01-16 20:01:00,29.3,10.6,30.24,NW,315,1.3,1.3,45,0.00,,---,0.00,VWS V14.01,2013-01-17 03:01:00,
2013-01-16 20:06:00,29.0,10.3,30.24,NW,315,0.2,0.2,45,0.00,,---,0.00,VWS V14.01,2013-01-17 03:06:00,
2013-01-16 20:11:00,29.0,10.3,30.24,NW,315,1.1,1.1,45,0.00,,---,0.00,VWS V14.01,2013-01-17 03:11:00,
2013-01-16 20:16:00,28.8,10.1,30.24,NW,315,2.5,2.5,45,0.00,,---,0.00,VWS V14.01,2013-01-17 03:16:00,
2013-01-16 20:21:00,28.8,10.1,30.24,West,270,2.5,2.5,45,0.00,,---,0.00,VWS V14.01,2013-01-17 03:21:00,
2013-01-16 20:26:00,28.6,10.0,30.24,West,270,1.3,1.3,45,0.00,,---,0.00,VWS V14.01,2013-01-17 03:26:00,
2013-01-16 20:31:00,28.4,10.3,30.24,WNW,292,3.1,3.1,46,0.00,,---,0.00,VWS V14.01,2013-01-17 03:31:00,
2013-01-16 20:36:00,28.4,9.8,30.24,WNW,292,2.2,2.2,45,0.00,,---,0.00,VWS V14.01,2013-01-17 03:36:00,
2013-01-16 20:41:00,28.3,10.2,30.24,NW,315,2.5,2.5,46,0.00,,---,0.00,VWS V14.01,2013-01-17 03:41:00,
2013-01-16 20:46:00,28.1,10.0,30.24,NW,315,2.2,2.2,46,0.00,,---,0.00,VWS V14.01,2013-01-17 03:46:00,
2013-01-16 20:51:00,27.9,9.8,30.24,NW,315,0.2,0.2,46,0.00,,---,0.00,VWS V14.01,2013-01-17 03:51:00,
2013-01-16 20:56:00,27.7,10.1,30.25,WNW,292,0.4,0.4,47,0.00,,---,0.00,VWS V14.01,2013-01-17 03:56:00,
2013-01-16 21:01:00,27.4,9.4,30.26,WNW,292,0.0,0.0,46,0.00,,---,0.00,VWS V14.01,2013-01-17 04:01:00,
2013-01-16 21:06:00,26.8,9.3,30.26,NNW,338,0.0,0.0,47,0.00,,---,0.00,VWS V14.01,2013-01-17 04:06:00,
2013-01-16 21:11:00,26.6,9.6,30.26,ENE,68,0.9,0.9,48,0.00,,---,0.00,VWS V14.01,2013-01-17 04:11:00,
2013-01-16 21:16:00,26.6,9.6,30.26,NE,45,0.0,0.0,48,0.00,,---,0.00,VWS V14.01,2013-01-17 04:16:00,
2013-01-16 21:21:00,26.5,9.5,30.26,ENE,68,0.0,0.0,48,0.00,,---,0.00,VWS V14.01,2013-01-17 04:21:00,
2013-01-16 21:26:00,26.1,9.1,30.26,ENE,68,0.0,0.0,48,0.00,,---,0.00,VWS V14.01,2013-01-17 04:26:00,
2013-01-16 21:31:00,25.6,8.2,30.27,ENE,68,0.0,0.0,47,0.00,,---,0.00,VWS V14.01,2013-01-17 04:31:00,
2013-01-16 21:36:00,25.6,9.1,30.26,ENE,68,0.0,0.0,49,0.00,,---,0.00,VWS V14.01,2013-01-17 04:36:00,
2013-01-16 21:41:00,25.4,8.5,30.26,NE,45,0.4,0.4,48,0.00,,---,0.00,VWS V14.01,2013-01-17 04:41:00,
2013-01-16 21:46:00,25.7,9.2,30.26,NNE,22,2.2,2.2,49,0.00,,---,0.00,VWS V14.01,2013-01-17 04:46:00,
2013-01-16 21:51:00,26.1,9.1,30.26,NNE,22,2.2,2.2,48,0.00,,---,0.00,VWS V14.01,2013-01-17 04:51:00,
2013-01-16 21:56:00,26.5,9.5,30.26,North,0,1.3,1.3,48,0.00,,---,0.00,VWS V14.01,2013-01-17 04:56:00,
2013-01-16 22:00:00,26.6,9.6,30.26,NW,315,1.1,1.1,48,0.00,,---,0.00,VWS V14.01,2013-01-17 05:00:00,
2013-01-16 22:01:00,26.6,9.6,30.26,NNW,338,0.0,0.0,48,0.00,,---,0.00,VWS V14.01,2013-01-17 05:01:00,
2013-01-16 22:03:00,26.5,9.5,30.26,NNW,338,1.1,1.1,48,0.00,,---,0.00,VWS V14.01,2013-01-17 05:03:00,
2013-01-16 22:08:00,26.5,9.5,30.26,North,0,0.4,0.4,48,0.00,,---,0.00,VWS V14.01,2013-01-17 05:08:00,
2013-01-16 22:13:00,26.5,9.5,30.26,NNE,22,1.8,1.8,48,0.00,,---,0.00,VWS V14.01,2013-01-17 05:13:00,
2013-01-16 22:18:00,26.3,9.3,30.26,NW,315,1.1,1.1,48,0.00,,---,0.00,VWS V14.01,2013-01-17 05:18:00,
2013-01-16 22:23:00,26.1,9.1,30.26,North,0,0.4,0.4,48,0.00,,---,0.00,VWS V14.01,2013-01-17 05:23:00,
2013-01-16 22:28:00,25.9,8.9,30.26,North,0,0.2,0.2,48,0.00,,---,0.00,VWS V14.01,2013-01-17 05:28:00,
2013-01-16 22:33:00,25.6,8.6,30.26,North,0,0.0,0.0,48,0.00,,---,0.00,VWS V14.01,2013-01-17 05:33:00,
2013-01-16 22:38:00,25.2,8.3,30.27,North,0,0.0,0.0,48,0.00,,---,0.00,VWS V14.01,2013-01-17 05:38:00,
2013-01-16 22:43:00,24.8,8.4,30.27,NNW,338,0.0,0.0,49,0.00,,---,0.00,VWS V14.01,2013-01-17 05:43:00,
2013-01-16 22:48:00,24.8,8.4,30.27,North,0,0.0,0.0,49,0.00,,---,0.00,VWS V14.01,2013-01-17 05:48:00,
2013-01-16 22:53:00,24.8,9.2,30.27,NNE,22,1.3,1.3,51,0.00,,---,0.00,VWS V14.01,2013-01-17 05:53:00,
2013-01-16 22:58:00,24.8,9.2,30.27,North,0,0.9,0.9,51,0.00,,---,0.00,VWS V14.01,2013-01-17 05:58:00,
2013-01-16 23:03:00,25.0,9.9,30.27,NE,45,1.8,1.8,52,0.00,,---,0.00,VWS V14.01,2013-01-17 06:03:00,
2013-01-16 23:08:00,25.2,10.1,30.27,North,0,0.9,0.9,52,0.00,,---,0.00,VWS V14.01,2013-01-17 06:08:00,
2013-01-16 23:13:00,25.0,9.4,30.28,NNE,22,0.4,0.4,51,0.00,,---,0.00,VWS V14.01,2013-01-17 06:13:00,
2013-01-16 23:18:00,24.8,9.2,30.27,NNE,22,0.4,0.4,51,0.00,,---,0.00,VWS V14.01,2013-01-17 06:18:00,
2013-01-16 23:23:00,24.7,9.6,30.28,NNE,22,0.0,0.0,52,0.00,,---,0.00,VWS V14.01,2013-01-17 06:23:00,
2013-01-16 23:28:00,24.1,9.0,30.28,North,0,0.0,0.0,52,0.00,,---,0.00,VWS V14.01,2013-01-17 06:28:00,
2013-01-16 23:33:00,24.1,9.0,30.28,North,0,0.0,0.0,52,0.00,,---,0.00,VWS V14.01,2013-01-17 06:33:00,
2013-01-16 23:38:00,23.9,8.9,30.28,North,0,0.0,0.0,52,0.00,,---,0.00,VWS V14.01,2013-01-17 06:38:00,
2013-01-16 23:43:00,23.4,8.8,30.28,North,0,0.0,0.0,53,0.00,,---,0.00,VWS V14.01,2013-01-17 06:43:00,
2013-01-16 23:48:00,22.9,7.9,30.28,North,0,0.0,0.0,52,0.00,,---,0.00,VWS V14.01,2013-01-17 06:48:00,
2013-01-16 23:53:00,22.5,8.4,30.28,North,0,0.0,0.0,54,0.00,,---,0.00,VWS V14.01,2013-01-17 06:53:00,
2013-01-16 23:58:00,22.3,8.6,30.28,North,0,0.0,0.0,55,0.00,,---,0.00,VWS V14.01,2013-01-17 06:58:00,